Погода в Барде

Погода в Барде : погода сейчас, прогноз погоды и архив. Всё, что Вы хотите узнать о погоде в Барде!

Поиск расширенной информации на нашем сайте:

Другие новости

Новости СМИ2

Главная страница сайта

Новости сайта

02.10.2013

Напоминаем, что на нашем новом сайте вы можете получить высокодетализированные прогнозы погоды по пунктам России, СНГ и мира (включающие важные для авиации метеовеличины, такие как направление и скорость ветра, видимость, явления погоды, количество и форма облачности, нижняя и верхняя граница облачности), а также ознакомиться с разнообразными материалами по авиационной метеорологии и подборкой полезных ссылок на эту тему.

Сайт Метеоцентр.Азия посвящён разработке технологий оптимизации авиаметеорологического обслуживания, включая проектирование и перспективное создание нескольких автоматизированных авиаметеорологических систем:
- система выпуска высокодетальных прогностических карт явлений погоды для нижнего воздушного пространства по России и ближнему зарубежью;
- система верификации прогнозов TAF (выпускаемых синоптиками официальных АМСГ РФ и ближнего зарубежья) и AUTOTAF (выпускаемых сайтом Метеоцентр.Азия) - выявление ошибок, онлайн-сопоставление с фактической погодой METAR, автоматическое внесение коррективов в прогнозы при резком отклонении фактической погоды от прогноза, подсчёт оправдываемости прогнозов по элементам и в целом;
- система обработки, анализа и отображения авиаметеорологической информации для применения провайдерами метеорологической информации.


Погода в Барде - сегодня

Время (UTC), дата Ветер
(°,м/с) 
Видим.   Явления Облачность Т
(°С)
Тd
(°С)
f(%) Тe
(°С)
Pmin
(гПа)
dP
(гПа)
Po
(мм)
O2
(г/м3)
Тmin Tmax R s Состояние
почвы
12 21.01.17 тихо ()   20000 м    4/4 600 м 
[Cu med, cong]
+10.7 +1.5 53 +11  1022.9  -2  761  295           
18 21.01.17 290 (З) 10 км    8/8 600 м 
[Cu med, cong]
+2.7 +0.3 84 +3  1023.7  0.8  761  304    +11.1       
21 21.01.17 320 (СЗ) 10 км    6/6 600 м 
[Cu med, cong]
+3.1 -1 74 +3  1024.5  0.8  762  304           
00 22.01.17 320 (СЗ) 10 км    8/8 600 м 
[Cu med, cong]
+4.5 -3.3 57 +3  1023.5  -0.9  761  302           
03 22.01.17 320 (СЗ) 10 км    8/8 600 м 
[Cu med, cong]
+3.5 -3.9 58 +2  1023.6  0.1  761  303           
06 22.01.17 320 (СЗ) 20000 м    8/0 верхняя 
[Ci fib]
+3.9 -4.9 53 +3  1024  0.3  762  303           
09 22.01.17 320 (СЗ) 20000 м    4/4 600 м 
[Cu med, cong]
+8.7 -5 37 +8  1023.4  -0.5  761  298           
12 22.01.17 320 (СЗ) 20000 м    4/4 600 м 
[Cu med, cong]
+10.7 -7.1 28 +11  1022.7  -0.7  761  296           
15 22.01.17 320 (СЗ) 10 км    9/9 600 м 
[Cu med, cong]
+7.5 -1.9 51 +8  1025.4  2.7  763  299           
18 22.01.17 320 (СЗ) 10 км    9/9 600 м 
[Cu med, cong]
+5.3 +0.4 71 +6  1028.5  3.1  765  302    +11.3       
21 22.01.17 180 (Ю) 10 км    10/0 средняя 
[As op]
+3.7 -0.9 72 +5  1031.3  2.7  767  305           
00 23.01.17 180 (Ю) 10 км    10/0 средняя 
[As op]
+2.9 -0.1 81 +4  1031.7  0.4  767  306           
03 23.01.17 090 (В) 10 км    10/0 средняя 
[As op]
+1.5 -0.5 87 +2  1032.3  0.5  768  308           
06 23.01.17 тихо ()   20000 м    9/9 600 м 
[Cu med, cong]
+1.9 -0.9 82 +2  1033.6  1.3  769  308           
09 23.01.17 320 (СЗ) 20000 м    ясно 
+7.3 -0.2 59 +8  1032.4  -1  768  301           
12 23.01.17 320 (СЗ) 20000 м    ясно 
+9.5 -0.7 49 +11  1030.4  -2  766  299           
15 23.01.17 тихо ()   10 км    ясно 
+5.9 +0.5 68 +6  1030.9  0.6  767  302           
18 23.01.17 160 (Ю) 10 км    ясно 
+1.1 -0.9 86 +2  1032.3  1.3  768  308    +10       
21 23.01.17 140 (ЮВ) 10 км    ясно 
-1.4 -3.3 87 -1  1033.3  0.8  768  312           
00 24.01.17 280 (З) 10 км    ясно 
-4.6 -6.2 89 -4  1034.9  1.4  769  316           
03 24.01.17 280 (З) 10 км    ясно 
-4.8 -6.5 88 -4  1035.2  0.3  770  316           
06 24.01.17 290 (З) 20000 м    ясно 
-1 -2.9 87 1034.7  0.1  770  312           
09 24.01.17 290 (З) 20000 м    ясно 
+6.7 -0.3 61 +8  1032.8  -1.7  768  302           
12 24.01.17 320 (СЗ) 20000 м    ясно 
+9.2 -0.7 50 +9  1029.3  -3.6  766  298           
15 24.01.17 тихо ()   10 км    ясно 
+5.3 +0.4 71 +5  1027.8  -1.4  764  302           
Время (UTC), дата Ветер
(°,м/с) 
Видим.   Явления Облачность Т
(°С)
Тd
(°С)
f(%) Тe
(°С)
Pmin
(гПа)
dP
(гПа)
Po
(мм)
O2
(г/м3)
Тmin Tmax R s Состояние
почвы

Для получения пояснительной информации подведите курсор к названию столбца.

ПОГОДА в Барде - архив

Всё, что Вы хотите узнать о погоде в Барде - удобно и подробно!

Выберите нужную дату (начиная с 1 января 2015* года) и нажмите кнопку "Найти".
Будут отображены архивные сводки погоды по пункту Барда, начиная с указанной даты.


Отображать данные в формате CSV (для использования в таблицах Excel)


Внимание! Наш архив погоды предназначен исключительно для личного некоммерческого использования в познавательных целях. Если Вам необходимы официальные справки о состоянии погоды (для производственных, юридических, коммерческих и т.п. целей), обращайтесь в органы Росгидромета.

*Примечание: данная дата относится к архиву по метеостанциям СССР (Россия, СНГ, Балтия).
Архив по метеостанциям Зарубежной Европы и Азии (кроме Китая) хранится 10 дней, по другим регионам земного шара (Китай, Африка, Америка, Австралия, Океания) - 1 день.

Барда - район местоположения метеостанции


Название, широта, долгота, высота метеостанции:
Барда 40.4°ш. 47.1°д. 69 м над ур. моря [Азербайджан]

Дополнительная информация

В oтличие oт бoльшинства пoгoдных сайтoв мы публикуем пoдрoбную метеoинфoрмацию в детальнoм прoфессиoнальнoм фoрмате.

Характеристики температуры и влажнoсти вoздуха измеряются на высoте 2 м в тени вдали oт зданий и деревьев.
Скoрoсть ветра измеряется на высoте 10 м (на урoвне рoста челoвека скoрoсть ветра ниже в 1.5-2 раза). Если метеoстанция нахoдится в гoрoде или в лесу, тo скoрoсть ветра занижена на 2-4 м/с пo сравнению с oткрытым местoм. Скoрoсть ветра над акватoриями крупных рек и oзёр, а также на вершинах хoлмoв на 2-5 м/с выше, чем в oбычных услoвиях.
Атмoсфернoе давление в разных тoчках местнoсти мoжет значительнo oтличаться oт давления на метеoстанции, в зависимoсти oт услoвий рельефа (при пoдъёме на 10 м давление пoнижается примернo на 1 мм рт.ст.).